﻿測定場所 (Monitoring sites),日付 (Measurement date),時間 (Measurement time),線量率 最大値 (max) μGy/h,線量率 最小値 (min) μGy/h,線量率 平均値 (average) μGy/h,
八王子 (Hachioji),2022-01-16,23:01～24:00,0.0339,0.0293,0.0310,
八王子 (Hachioji),2022-01-16,22:01～23:00,0.0337,0.0291,0.0310,
八王子 (Hachioji),2022-01-16,21:01～22:00,0.0333,0.0292,0.0311,
八王子 (Hachioji),2022-01-16,20:01～21:00,0.0328,0.0291,0.0312,
八王子 (Hachioji),2022-01-16,19:01～20:00,0.0322,0.0292,0.0308,
八王子 (Hachioji),2022-01-16,18:01～19:00,0.0325,0.0284,0.0306,
八王子 (Hachioji),2022-01-16,17:01～18:00,0.0327,0.0277,0.0306,
八王子 (Hachioji),2022-01-16,16:01～17:00,0.0315,0.0286,0.0303,
八王子 (Hachioji),2022-01-16,15:01～16:00,0.0323,0.0276,0.0301,
八王子 (Hachioji),2022-01-16,14:01～15:00,0.0319,0.0281,0.0301,
八王子 (Hachioji),2022-01-16,13:01～14:00,0.0319,0.0281,0.0301,
八王子 (Hachioji),2022-01-16,12:01～13:00,0.0321,0.0280,0.0303,
八王子 (Hachioji),2022-01-16,11:01～12:00,0.0320,0.0285,0.0304,
八王子 (Hachioji),2022-01-16,10:01～11:00,0.0341,0.0287,0.0314,
八王子 (Hachioji),2022-01-16,09:01～10:00,0.0338,0.0304,0.0320,
八王子 (Hachioji),2022-01-16,08:01～09:00,0.0342,0.0299,0.0321,
八王子 (Hachioji),2022-01-16,07:01～08:00,0.0342,0.0294,0.0315,
八王子 (Hachioji),2022-01-16,06:01～07:00,0.0330,0.0296,0.0312,
八王子 (Hachioji),2022-01-16,05:01～06:00,0.0335,0.0293,0.0312,
八王子 (Hachioji),2022-01-16,04:01～05:00,0.0328,0.0287,0.0308,
八王子 (Hachioji),2022-01-16,03:01～04:00,0.0330,0.0293,0.0308,
八王子 (Hachioji),2022-01-16,02:01～03:00,0.0334,0.0284,0.0309,
八王子 (Hachioji),2022-01-16,01:01～02:00,0.0325,0.0288,0.0307,
八王子 (Hachioji),2022-01-16,00:01～01:00,0.0337,0.0277,0.0305,
八王子 (Hachioji),2022-01-15,23:01～24:00,0.0328,0.0285,0.0304,
八王子 (Hachioji),2022-01-15,22:01～23:00,0.0330,0.0280,0.0301,
八王子 (Hachioji),2022-01-15,21:01～22:00,0.0318,0.0285,0.0300,
八王子 (Hachioji),2022-01-15,20:01～21:00,0.0315,0.0272,0.0296,
八王子 (Hachioji),2022-01-15,19:01～20:00,0.0321,0.0279,0.0298,
八王子 (Hachioji),2022-01-15,18:01～19:00,0.0315,0.0281,0.0296,
八王子 (Hachioji),2022-01-15,17:01～18:00,0.0316,0.0277,0.0297,
八王子 (Hachioji),2022-01-15,16:01～17:00,0.0318,0.0279,0.0296,
八王子 (Hachioji),2022-01-15,15:01～16:00,0.0328,0.0281,0.0301,
八王子 (Hachioji),2022-01-15,14:01～15:00,0.0324,0.0277,0.0298,
八王子 (Hachioji),2022-01-15,13:01～14:00,0.0324,0.0281,0.0300,
八王子 (Hachioji),2022-01-15,12:01～13:00,0.0320,0.0279,0.0300,
八王子 (Hachioji),2022-01-15,11:01～12:00,0.0322,0.0282,0.0302,
八王子 (Hachioji),2022-01-15,10:01～11:00,0.0329,0.0286,0.0305,
八王子 (Hachioji),2022-01-15,09:01～10:00,0.0320,0.0287,0.0303,
八王子 (Hachioji),2022-01-15,08:01～09:00,0.0330,0.0285,0.0305,
八王子 (Hachioji),2022-01-15,07:01～08:00,0.0327,0.0283,0.0308,
八王子 (Hachioji),2022-01-15,06:01～07:00,0.0324,0.0287,0.0306,
八王子 (Hachioji),2022-01-15,05:01～06:00,0.0325,0.0285,0.0307,
八王子 (Hachioji),2022-01-15,04:01～05:00,0.0323,0.0284,0.0306,
八王子 (Hachioji),2022-01-15,03:01～04:00,0.0330,0.0289,0.0309,
八王子 (Hachioji),2022-01-15,02:01～03:00,0.0326,0.0289,0.0306,
八王子 (Hachioji),2022-01-15,01:01～02:00,0.0323,0.0274,0.0303,
八王子 (Hachioji),2022-01-15,00:01～01:00,0.0324,0.0272,0.0301,
八王子 (Hachioji),2022-01-14,23:01～24:00,0.0318,0.0278,0.0300,
八王子 (Hachioji),2022-01-14,22:01～23:00,0.0320,0.0282,0.0301,
八王子 (Hachioji),2022-01-14,21:01～22:00,0.0330,0.0273,0.0303,
八王子 (Hachioji),2022-01-14,20:01～21:00,0.0331,0.0282,0.0302,
八王子 (Hachioji),2022-01-14,19:01～20:00,0.0314,0.0280,0.0301,
八王子 (Hachioji),2022-01-14,18:01～19:00,0.0323,0.0286,0.0304,
八王子 (Hachioji),2022-01-14,17:01～18:00,0.0317,0.0287,0.0302,
八王子 (Hachioji),2022-01-14,16:01～17:00,0.0323,0.0286,0.0304,
八王子 (Hachioji),2022-01-14,15:01～16:00,0.0324,0.0285,0.0304,
八王子 (Hachioji),2022-01-14,14:01～15:00,0.0324,0.0286,0.0310,
八王子 (Hachioji),2022-01-14,13:01～14:00,0.0334,0.0286,0.0309,
八王子 (Hachioji),2022-01-14,12:01～13:00,0.0333,0.0284,0.0311,
八王子 (Hachioji),2022-01-14,11:01～12:00,0.0343,0.0298,0.0315,
八王子 (Hachioji),2022-01-14,10:01～11:00,0.0333,0.0289,0.0312,
八王子 (Hachioji),2022-01-14,09:01～10:00,0.0339,0.0297,0.0317,
八王子 (Hachioji),2022-01-14,08:01～09:00,0.0333,0.0295,0.0315,
八王子 (Hachioji),2022-01-14,07:01～08:00,0.0342,0.0293,0.0314,
八王子 (Hachioji),2022-01-14,06:01～07:00,0.0328,0.0291,0.0308,
八王子 (Hachioji),2022-01-14,05:01～06:00,0.0328,0.0289,0.0309,
八王子 (Hachioji),2022-01-14,04:01～05:00,0.0333,0.0292,0.0310,
八王子 (Hachioji),2022-01-14,03:01～04:00,0.0323,0.0285,0.0305,
八王子 (Hachioji),2022-01-14,02:01～03:00,0.0328,0.0281,0.0304,
八王子 (Hachioji),2022-01-14,01:01～02:00,0.0324,0.0282,0.0305,
八王子 (Hachioji),2022-01-14,00:01～01:00,0.0328,0.0289,0.0310,
八王子 (Hachioji),2022-01-13,23:01～24:00,0.0330,0.0290,0.0310,
八王子 (Hachioji),2022-01-13,22:01～23:00,0.0329,0.0282,0.0305,
八王子 (Hachioji),2022-01-13,21:01～22:00,0.0323,0.0289,0.0308,
八王子 (Hachioji),2022-01-13,20:01～21:00,0.0338,0.0280,0.0304,
八王子 (Hachioji),2022-01-13,19:01～20:00,0.0327,0.0291,0.0306,
八王子 (Hachioji),2022-01-13,18:01～19:00,0.0323,0.0283,0.0304,
八王子 (Hachioji),2022-01-13,17:01～18:00,0.0336,0.0290,0.0307,
八王子 (Hachioji),2022-01-13,16:01～17:00,0.0330,0.0283,0.0307,
八王子 (Hachioji),2022-01-13,15:01～16:00,0.0336,0.0288,0.0309,
八王子 (Hachioji),2022-01-13,14:01～15:00,0.0326,0.0287,0.0306,
八王子 (Hachioji),2022-01-13,13:01～14:00,0.0325,0.0285,0.0307,
八王子 (Hachioji),2022-01-13,12:01～13:00,0.0331,0.0286,0.0308,
八王子 (Hachioji),2022-01-13,11:01～12:00,0.0331,0.0291,0.0312,
八王子 (Hachioji),2022-01-13,10:01～11:00,0.0335,0.0292,0.0312,
八王子 (Hachioji),2022-01-13,09:01～10:00,0.0342,0.0288,0.0314,
八王子 (Hachioji),2022-01-13,08:01～09:00,0.0333,0.0302,0.0316,
八王子 (Hachioji),2022-01-13,07:01～08:00,0.0338,0.0299,0.0321,
八王子 (Hachioji),2022-01-13,06:01～07:00,0.0342,0.0304,0.0324,
八王子 (Hachioji),2022-01-13,05:01～06:00,0.0344,0.0296,0.0319,
八王子 (Hachioji),2022-01-13,04:01～05:00,0.0353,0.0304,0.0323,
八王子 (Hachioji),2022-01-13,03:01～04:00,0.0344,0.0294,0.0324,
八王子 (Hachioji),2022-01-13,02:01～03:00,0.0344,0.0305,0.0324,
八王子 (Hachioji),2022-01-13,01:01～02:00,0.0344,0.0300,0.0322,
八王子 (Hachioji),2022-01-13,00:01～01:00,0.0339,0.0295,0.0320,
八王子 (Hachioji),2022-01-12,23:01～24:00,0.0339,0.0301,0.0320,
八王子 (Hachioji),2022-01-12,22:01～23:00,0.0335,0.0298,0.0316,
八王子 (Hachioji),2022-01-12,21:01～22:00,0.0329,0.0294,0.0312,
八王子 (Hachioji),2022-01-12,20:01～21:00,0.0334,0.0281,0.0308,
八王子 (Hachioji),2022-01-12,19:01～20:00,0.0328,0.0274,0.0303,
八王子 (Hachioji),2022-01-12,18:01～19:00,0.0328,0.0273,0.0306,
八王子 (Hachioji),2022-01-12,17:01～18:00,0.0334,0.0287,0.0306,
八王子 (Hachioji),2022-01-12,16:01～17:00,0.0321,0.0289,0.0305,
八王子 (Hachioji),2022-01-12,15:01～16:00,0.0327,0.0289,0.0307,
八王子 (Hachioji),2022-01-12,14:01～15:00,0.0333,0.0290,0.0307,
八王子 (Hachioji),2022-01-12,13:01～14:00,0.0333,0.0288,0.0306,
八王子 (Hachioji),2022-01-12,12:01～13:00,0.0323,0.0284,0.0307,
八王子 (Hachioji),2022-01-12,11:01～12:00,0.0327,0.0284,0.0308,
八王子 (Hachioji),2022-01-12,10:01～11:00,0.0326,0.0288,0.0308,
八王子 (Hachioji),2022-01-12,09:01～10:00,0.0326,0.0289,0.0310,
八王子 (Hachioji),2022-01-12,08:01～09:00,0.0324,0.0279,0.0302,
八王子 (Hachioji),2022-01-12,07:01～08:00,0.0330,0.0294,0.0308,
八王子 (Hachioji),2022-01-12,06:01～07:00,0.0334,0.0293,0.0313,
八王子 (Hachioji),2022-01-12,05:01～06:00,0.0344,0.0291,0.0310,
八王子 (Hachioji),2022-01-12,04:01～05:00,0.0330,0.0285,0.0311,
八王子 (Hachioji),2022-01-12,03:01～04:00,0.0331,0.0290,0.0308,
八王子 (Hachioji),2022-01-12,02:01～03:00,0.0332,0.0290,0.0312,
八王子 (Hachioji),2022-01-12,01:01～02:00,0.0326,0.0290,0.0310,
八王子 (Hachioji),2022-01-12,00:01～01:00,0.0322,0.0289,0.0305,
八王子 (Hachioji),2022-01-11,23:01～24:00,0.0329,0.0285,0.0307,
八王子 (Hachioji),2022-01-11,22:01～23:00,0.0323,0.0282,0.0306,
八王子 (Hachioji),2022-01-11,21:01～22:00,0.0325,0.0274,0.0304,
八王子 (Hachioji),2022-01-11,20:01～21:00,0.0324,0.0288,0.0304,
八王子 (Hachioji),2022-01-11,19:01～20:00,0.0343,0.0290,0.0317,
八王子 (Hachioji),2022-01-11,18:01～19:00,0.0414,0.0317,0.0355,
八王子 (Hachioji),2022-01-11,17:01～18:00,0.0438,0.0303,0.0377,
八王子 (Hachioji),2022-01-11,16:01～17:00,0.0355,0.0308,0.0334,
八王子 (Hachioji),2022-01-11,15:01～16:00,0.0453,0.0330,0.0382,
八王子 (Hachioji),2022-01-11,14:01～15:00,0.0511,0.0415,0.0461,
八王子 (Hachioji),2022-01-11,13:01～14:00,0.0492,0.0397,0.0446,
八王子 (Hachioji),2022-01-11,12:01～13:00,0.0433,0.0341,0.0378,
八王子 (Hachioji),2022-01-11,11:01～12:00,0.0346,0.0296,0.0318,
八王子 (Hachioji),2022-01-11,10:01～11:00,0.0347,0.0296,0.0318,
八王子 (Hachioji),2022-01-11,09:01～10:00,0.0390,0.0314,0.0348,
八王子 (Hachioji),2022-01-11,08:01～09:00,0.0439,0.0358,0.0406,
八王子 (Hachioji),2022-01-11,07:01～08:00,0.0443,0.0384,0.0413,
八王子 (Hachioji),2022-01-11,06:01～07:00,0.0429,0.0359,0.0383,
八王子 (Hachioji),2022-01-11,05:01～06:00,0.0390,0.0298,0.0341,
八王子 (Hachioji),2022-01-11,04:01～05:00,0.0344,0.0298,0.0322,
八王子 (Hachioji),2022-01-11,03:01～04:00,0.0336,0.0291,0.0315,
八王子 (Hachioji),2022-01-11,02:01～03:00,0.0329,0.0287,0.0308,
八王子 (Hachioji),2022-01-11,01:01～02:00,0.0326,0.0292,0.0308,
八王子 (Hachioji),2022-01-11,00:01～01:00,0.0335,0.0281,0.0311,
八王子 (Hachioji),2022-01-10,23:01～24:00,0.0328,0.0287,0.0312,
八王子 (Hachioji),2022-01-10,22:01～23:00,0.0330,0.0293,0.0311,
八王子 (Hachioji),2022-01-10,21:01～22:00,0.0329,0.0284,0.0304,
八王子 (Hachioji),2022-01-10,20:01～21:00,0.0319,0.0289,0.0304,
八王子 (Hachioji),2022-01-10,19:01～20:00,0.0322,0.0286,0.0304,
八王子 (Hachioji),2022-01-10,18:01～19:00,0.0322,0.0283,0.0305,
八王子 (Hachioji),2022-01-10,17:01～18:00,0.0330,0.0284,0.0305,
八王子 (Hachioji),2022-01-10,16:01～17:00,0.0334,0.0289,0.0309,
八王子 (Hachioji),2022-01-10,15:01～16:00,0.0336,0.0293,0.0315,
八王子 (Hachioji),2022-01-10,14:01～15:00,0.0330,0.0290,0.0310,
八王子 (Hachioji),2022-01-10,13:01～14:00,0.0331,0.0286,0.0313,
八王子 (Hachioji),2022-01-10,12:01～13:00,0.0329,0.0290,0.0311,
八王子 (Hachioji),2022-01-10,11:01～12:00,0.0333,0.0289,0.0314,
八王子 (Hachioji),2022-01-10,10:01～11:00,0.0345,0.0296,0.0319,
八王子 (Hachioji),2022-01-10,09:01～10:00,0.0338,0.0296,0.0319,
八王子 (Hachioji),2022-01-10,08:01～09:00,0.0344,0.0305,0.0318,
八王子 (Hachioji),2022-01-10,07:01～08:00,0.0346,0.0302,0.0319,
八王子 (Hachioji),2022-01-10,06:01～07:00,0.0348,0.0295,0.0319,
八王子 (Hachioji),2022-01-10,05:01～06:00,0.0348,0.0299,0.0323,
八王子 (Hachioji),2022-01-10,04:01～05:00,0.0350,0.0313,0.0330,
八王子 (Hachioji),2022-01-10,03:01～04:00,0.0344,0.0304,0.0325,
八王子 (Hachioji),2022-01-10,02:01～03:00,0.0342,0.0299,0.0321,
八王子 (Hachioji),2022-01-10,01:01～02:00,0.0335,0.0288,0.0314,
八王子 (Hachioji),2022-01-10,00:01～01:00,0.0334,0.0294,0.0311,
